Time,TemperatureF,DewpointF,PressureIn,WindDirection,WindDirectionDegrees,WindSpeedMPH,WindSpeedGustMPH,Humidity,HourlyPrecipIn,Conditions,Clouds,dailyrainin,SoftwareType,DateUTC
2013-07-16 00:01:00,73.0,-23.0,30.08,SW,225,0.0,4.0,0,0.00,,,0.00,Rainwise IP-100,2013-07-16 04:01:00,
2013-07-16 00:06:00,73.0,-23.0,30.08,SW,225,0.0,3.0,0,0.00,,,0.00,Rainwise IP-100,2013-07-16 04:06:00,
2013-07-16 00:11:00,73.0,-23.0,30.08,SW,225,0.0,2.0,0,0.00,,,0.00,Rainwise IP-100,2013-07-16 04:11:00,
2013-07-16 00:16:00,73.0,-23.0,30.08,SW,225,0.0,0.0,0,0.00,,,0.00,Rainwise IP-100,2013-07-16 04:16:00,
2013-07-16 00:21:00,73.0,-23.0,30.08,SW,225,0.0,3.0,0,0.00,,,0.00,Rainwise IP-100,2013-07-16 04:21:00,
2013-07-16 00:26:00,73.0,-23.0,30.08,SW,225,0.0,4.0,0,0.00,,,0.00,Rainwise IP-100,2013-07-16 04:26:00,
2013-07-16 00:31:00,73.0,-23.0,30.08,SW,225,0.0,0.0,0,0.00,,,0.00,Rainwise IP-100,2013-07-16 04:31:00,
2013-07-16 00:36:00,73.0,-23.0,30.07,WSW,247,1.0,4.0,0,0.00,,,0.00,Rainwise IP-100,2013-07-16 04:36:00,
2013-07-16 00:41:00,73.0,-23.0,30.07,WSW,247,1.0,2.0,0,0.00,,,0.00,Rainwise IP-100,2013-07-16 04:41:00,
2013-07-16 00:46:00,73.0,-23.0,30.07,SW,225,0.0,4.0,0,0.00,,,0.00,Rainwise IP-100,2013-07-16 04:46:00,
2013-07-16 00:51:00,73.0,-23.0,30.07,SW,225,2.0,6.0,0,0.00,,,0.00,Rainwise IP-100,2013-07-16 04:51:00,
2013-07-16 00:57:00,73.0,-23.0,30.07,WSW,247,0.0,5.0,0,0.00,,,0.00,Rainwise IP-100,2013-07-16 04:57:00,
2013-07-16 01:02:00,73.0,-23.0,30.07,SW,225,0.0,3.0,0,0.00,,,0.00,Rainwise IP-100,2013-07-16 05:02:00,
2013-07-16 01:07:00,73.0,-23.0,30.07,SW,225,4.0,4.0,0,0.00,,,0.00,Rainwise IP-100,2013-07-16 05:07:00,
2013-07-16 01:12:00,73.0,-23.0,30.07,SW,225,1.0,6.0,0,0.00,,,0.00,Rainwise IP-100,2013-07-16 05:12:00,
2013-07-16 01:17:00,73.0,-23.0,30.07,SW,225,0.0,6.0,0,0.00,,,0.00,Rainwise IP-100,2013-07-16 05:17:00,
2013-07-16 01:22:00,73.0,-23.0,30.06,WSW,247,1.0,3.0,0,0.00,,,0.00,Rainwise IP-100,2013-07-16 05:22:00,
2013-07-16 01:27:00,73.0,-23.0,30.06,SSW,202,0.0,4.0,0,0.00,,,0.00,Rainwise IP-100,2013-07-16 05:27:00,
2013-07-16 01:32:00,73.0,-23.0,30.07,SW,225,0.0,4.0,0,0.00,,,0.00,Rainwise IP-100,2013-07-16 05:32:00,
2013-07-16 01:37:00,73.0,-23.0,30.07,WNW,292,0.0,5.0,0,0.00,,,0.00,Rainwise IP-100,2013-07-16 05:37:00,
2013-07-16 01:42:00,73.0,-23.0,30.06,WNW,292,0.0,5.0,0,0.00,,,0.00,Rainwise IP-100,2013-07-16 05:42:00,
2013-07-16 01:47:00,73.0,-23.0,30.06,NW,315,0.0,4.0,0,0.00,,,0.00,Rainwise IP-100,2013-07-16 05:47:00,
2013-07-16 01:52:00,73.0,-23.0,30.06,SW,225,0.0,5.0,0,0.00,,,0.00,Rainwise IP-100,2013-07-16 05:52:00,
2013-07-16 01:57:00,73.0,-23.0,30.06,SW,225,2.0,7.0,0,0.00,,,0.00,Rainwise IP-100,2013-07-16 05:57:00,
2013-07-16 02:02:00,73.0,-23.0,30.06,SW,225,0.0,4.0,0,0.00,,,0.00,Rainwise IP-100,2013-07-16 06:02:00,
2013-07-16 02:07:00,73.0,-23.0,30.06,SW,225,0.0,4.0,0,0.00,,,0.00,Rainwise IP-100,2013-07-16 06:07:00,
2013-07-16 02:13:00,73.0,-23.0,30.06,SW,225,1.0,2.0,0,0.00,,,0.00,Rainwise IP-100,2013-07-16 06:13:00,
2013-07-16 02:18:00,73.0,-23.0,30.06,SW,225,1.0,3.0,0,0.00,,,0.00,Rainwise IP-100,2013-07-16 06:18:00,
2013-07-16 02:23:00,73.0,-23.0,30.06,WSW,247,3.0,3.0,0,0.00,,,0.00,Rainwise IP-100,2013-07-16 06:23:00,
2013-07-16 02:28:00,73.0,-23.0,30.06,WSW,247,0.0,6.0,0,0.00,,,0.00,Rainwise IP-100,2013-07-16 06:28:00,
2013-07-16 02:33:00,73.0,-23.0,30.06,West,270,0.0,5.0,0,0.00,,,0.00,Rainwise IP-100,2013-07-16 06:33:00,
2013-07-16 02:38:00,73.0,-23.0,30.06,West,270,0.0,3.0,0,0.00,,,0.00,Rainwise IP-100,2013-07-16 06:38:00,
2013-07-16 02:43:00,73.0,-23.0,30.05,SW,225,1.0,5.0,0,0.00,,,0.00,Rainwise IP-100,2013-07-16 06:43:00,
2013-07-16 02:48:00,72.0,-23.0,30.05,SW,225,2.0,4.0,0,0.00,,,0.00,Rainwise IP-100,2013-07-16 06:48:00,
2013-07-16 02:53:00,72.0,-23.0,30.05,SW,225,2.0,6.0,0,0.00,,,0.00,Rainwise IP-100,2013-07-16 06:53:00,
2013-07-16 02:58:00,72.0,-23.0,30.05,SW,225,2.0,6.0,0,0.00,,,0.00,Rainwise IP-100,2013-07-16 06:58:00,
2013-07-16 03:03:00,72.0,-23.0,30.05,WSW,247,0.0,6.0,0,0.00,,,0.00,Rainwise IP-100,2013-07-16 07:03:00,
2013-07-16 03:08:00,72.0,-23.0,30.05,SW,225,1.0,4.0,0,0.00,,,0.00,Rainwise IP-100,2013-07-16 07:08:00,
2013-07-16 03:13:00,72.0,-23.0,30.05,West,270,0.0,4.0,0,0.00,,,0.00,Rainwise IP-100,2013-07-16 07:13:00,
2013-07-16 03:18:00,72.0,-23.0,30.05,WSW,247,0.0,0.0,0,0.00,,,0.00,Rainwise IP-100,2013-07-16 07:18:00,
2013-07-16 03:23:00,72.0,-23.0,30.05,SW,225,0.0,3.0,0,0.00,,,0.00,Rainwise IP-100,2013-07-16 07:23:00,
2013-07-16 03:29:00,72.0,-23.0,30.05,NW,315,0.0,1.0,0,0.00,,,0.00,Rainwise IP-100,2013-07-16 07:29:00,
2013-07-16 03:34:00,71.0,-23.0,30.05,NW,315,0.0,0.0,0,0.00,,,0.00,Rainwise IP-100,2013-07-16 07:34:00,
2013-07-16 03:39:00,71.0,-23.0,30.05,WSW,247,1.0,1.0,0,0.00,,,0.00,Rainwise IP-100,2013-07-16 07:39:00,
2013-07-16 03:44:00,71.0,-23.0,30.04,SW,225,0.0,3.0,0,0.00,,,0.00,Rainwise IP-100,2013-07-16 07:44:00,
2013-07-16 03:49:00,71.0,-23.0,30.04,WSW,247,0.0,1.0,0,0.00,,,0.00,Rainwise IP-100,2013-07-16 07:49:00,
2013-07-16 03:54:00,71.0,-23.0,30.06,NW,315,0.0,2.0,0,0.00,,,0.00,Rainwise IP-100,2013-07-16 07:54:00,
2013-07-16 03:59:00,71.0,-23.0,30.06,NNW,337,0.0,0.0,0,0.00,,,0.00,Rainwise IP-100,2013-07-16 07:59:00,
2013-07-16 04:04:00,71.0,-23.0,30.06,NW,315,2.0,3.0,0,0.00,,,0.00,Rainwise IP-100,2013-07-16 08:04:00,
2013-07-16 04:09:00,71.0,-23.0,30.06,WNW,292,2.0,2.0,0,0.00,,,0.00,Rainwise IP-100,2013-07-16 08:09:00,
2013-07-16 04:14:00,72.0,-23.0,30.05,NW,315,0.0,3.0,0,0.00,,,0.00,Rainwise IP-100,2013-07-16 08:14:00,
2013-07-16 04:19:00,72.0,-23.0,30.05,WNW,292,2.0,3.0,0,0.00,,,0.00,Rainwise IP-100,2013-07-16 08:19:00,
2013-07-16 04:24:00,72.0,-23.0,30.05,WNW,292,0.0,3.0,0,0.00,,,0.00,Rainwise IP-100,2013-07-16 08:24:00,
2013-07-16 04:29:00,72.0,-23.0,30.05,WNW,292,2.0,5.0,0,0.00,,,0.00,Rainwise IP-100,2013-07-16 08:29:00,
2013-07-16 04:34:00,72.0,-23.0,30.05,WNW,292,2.0,4.0,0,0.00,,,0.00,Rainwise IP-100,2013-07-16 08:34:00,
2013-07-16 04:39:00,72.0,-23.0,30.05,NW,315,0.0,4.0,0,0.00,,,0.00,Rainwise IP-100,2013-07-16 08:39:00,
2013-07-16 04:45:00,72.0,-23.0,30.05,NW,315,4.0,7.0,0,0.00,,,0.00,Rainwise IP-100,2013-07-16 08:45:00,
2013-07-16 04:50:00,72.0,-23.0,30.05,NW,315,5.0,6.0,0,0.00,,,0.00,Rainwise IP-100,2013-07-16 08:50:00,
2013-07-16 04:55:00,73.0,-23.0,30.04,WNW,292,5.0,6.0,0,0.00,,,0.00,Rainwise IP-100,2013-07-16 08:55:00,
2013-07-16 05:00:00,73.0,-23.0,30.04,WNW,292,3.0,5.0,0,0.00,,,0.00,Rainwise IP-100,2013-07-16 09:00:00,
2013-07-16 05:05:00,73.0,-23.0,30.04,NW,315,3.0,6.0,0,0.00,,,0.00,Rainwise IP-100,2013-07-16 09:05:00,
2013-07-16 05:10:00,73.0,-23.0,30.04,NW,315,3.0,6.0,0,0.00,,,0.00,Rainwise IP-100,2013-07-16 09:10:00,
2013-07-16 05:15:00,73.0,-23.0,30.05,NW,315,2.0,6.0,0,0.00,,,0.00,Rainwise IP-100,2013-07-16 09:15:00,
2013-07-16 05:20:00,73.0,-23.0,30.05,NW,315,1.0,6.0,0,0.00,,,0.00,Rainwise IP-100,2013-07-16 09:20:00,
2013-07-16 05:25:00,73.0,-23.0,30.05,WNW,292,2.0,7.0,0,0.00,,,0.00,Rainwise IP-100,2013-07-16 09:25:00,
2013-07-16 05:30:00,73.0,-23.0,30.05,NW,315,2.0,8.0,0,0.00,,,0.00,Rainwise IP-100,2013-07-16 09:30:00,
2013-07-16 05:35:00,73.0,-23.0,30.06,NW,315,4.0,7.0,0,0.00,,,0.00,Rainwise IP-100,2013-07-16 09:35:00,
2013-07-16 05:40:00,73.0,-23.0,30.06,NW,315,3.0,9.0,0,0.00,,,0.00,Rainwise IP-100,2013-07-16 09:40:00,
2013-07-16 05:45:00,73.0,-23.0,30.05,NW,315,6.0,8.0,0,0.00,,,0.00,Rainwise IP-100,2013-07-16 09:45:00,
2013-07-16 05:50:00,74.0,-23.0,30.05,WNW,292,3.0,7.0,0,0.00,,,0.00,Rainwise IP-100,2013-07-16 09:50:00,
2013-07-16 05:55:00,74.0,-23.0,30.05,WNW,292,3.0,7.0,0,0.00,,,0.00,Rainwise IP-100,2013-07-16 09:55:00,
2013-07-16 06:01:00,74.0,-23.0,30.05,NW,315,5.0,6.0,0,0.00,,,0.00,Rainwise IP-100,2013-07-16 10:01:00,
2013-07-16 06:06:00,74.0,-23.0,30.06,NW,315,6.0,9.0,0,0.00,,,0.00,Rainwise IP-100,2013-07-16 10:06:00,
2013-07-16 06:11:00,74.0,-23.0,30.06,NW,315,5.0,7.0,0,0.00,,,0.00,Rainwise IP-100,2013-07-16 10:11:00,
2013-07-16 06:16:00,74.0,-23.0,30.06,NW,315,5.0,7.0,0,0.00,,,0.00,Rainwise IP-100,2013-07-16 10:16:00,
2013-07-16 06:21:00,75.0,-23.0,30.06,NW,315,3.0,8.0,0,0.00,,,0.00,Rainwise IP-100,2013-07-16 10:21:00,
2013-07-16 06:26:00,75.0,-23.0,30.06,North,360,2.0,7.0,0,0.00,,,0.00,Rainwise IP-100,2013-07-16 10:26:00,
2013-07-16 06:31:00,75.0,-23.0,30.06,NW,315,3.0,6.0,0,0.00,,,0.00,Rainwise IP-100,2013-07-16 10:31:00,
2013-07-16 06:36:00,75.0,-23.0,30.06,NW,315,1.0,7.0,0,0.00,,,0.00,Rainwise IP-100,2013-07-16 10:36:00,
2013-07-16 06:41:00,75.0,-23.0,30.06,NW,315,4.0,9.0,0,0.00,,,0.00,Rainwise IP-100,2013-07-16 10:41:00,
2013-07-16 06:46:00,76.0,-23.0,30.06,NNW,337,0.0,7.0,0,0.00,,,0.00,Rainwise IP-100,2013-07-16 10:46:00,
2013-07-16 06:51:00,76.0,-23.0,30.06,North,360,3.0,6.0,0,0.00,,,0.00,Rainwise IP-100,2013-07-16 10:51:00,
2013-07-16 06:56:00,76.0,-23.0,30.06,NNW,337,0.0,7.0,0,0.00,,,0.00,Rainwise IP-100,2013-07-16 10:56:00,
2013-07-16 07:01:00,77.0,-23.0,30.06,North,360,0.0,5.0,0,0.00,,,0.00,Rainwise IP-100,2013-07-16 11:01:00,
2013-07-16 07:06:00,77.0,-23.0,30.06,North,360,5.0,8.0,0,0.00,,,0.00,Rainwise IP-100,2013-07-16 11:06:00,
2013-07-16 07:11:00,77.0,-23.0,30.06,NW,315,2.0,7.0,0,0.00,,,0.00,Rainwise IP-100,2013-07-16 11:11:00,
2013-07-16 07:17:00,77.0,-23.0,30.06,NNW,337,5.0,8.0,0,0.00,,,0.00,Rainwise IP-100,2013-07-16 11:17:00,
2013-07-16 07:22:00,77.0,-23.0,30.06,North,360,0.0,0.0,0,0.00,,,0.00,Rainwise IP-100,2013-07-16 11:22:00,
2013-07-16 07:27:00,78.0,-23.0,30.06,North,360,7.0,9.0,0,0.00,,,0.00,Rainwise IP-100,2013-07-16 11:27:00,
2013-07-16 07:32:00,78.0,-23.0,30.06,NNE,22,3.0,9.0,0,0.00,,,0.00,Rainwise IP-100,2013-07-16 11:32:00,
2013-07-16 07:37:00,78.0,-23.0,30.06,North,360,6.0,9.0,0,0.00,,,0.00,Rainwise IP-100,2013-07-16 11:37:00,
2013-07-16 07:42:00,78.0,-23.0,30.07,NNW,337,6.0,0.0,0,0.00,,,0.00,Rainwise IP-100,2013-07-16 11:42:00,
2013-07-16 07:47:00,78.0,-23.0,30.07,North,360,9.0,9.0,0,0.00,,,0.00,Rainwise IP-100,2013-07-16 11:47:00,
2013-07-16 07:52:00,78.0,-23.0,30.06,NNW,337,0.0,0.0,0,0.00,,,0.00,Rainwise IP-100,2013-07-16 11:52:00,
2013-07-16 07:57:00,78.0,-23.0,30.06,NNE,22,3.0,3.0,0,0.00,,,0.00,Rainwise IP-100,2013-07-16 11:57:00,
2013-07-16 08:02:00,78.0,-23.0,30.06,NNE,22,3.0,3.0,0,0.00,,,0.00,Rainwise IP-100,2013-07-16 12:02:00,
2013-07-16 08:07:00,78.0,-23.0,30.07,North,360,1.0,0.0,0,0.00,,,0.00,Rainwise IP-100,2013-07-16 12:07:00,
2013-07-16 08:12:00,79.0,-23.0,30.06,NNW,337,8.0,9.0,0,0.00,,,0.00,Rainwise IP-100,2013-07-16 12:12:00,
2013-07-16 08:17:00,78.0,-23.0,30.06,NNW,337,5.0,0.0,0,0.00,,,0.00,Rainwise IP-100,2013-07-16 12:17:00,
2013-07-16 08:22:00,78.0,-23.0,30.07,NNW,337,7.0,0.0,0,0.00,,,0.00,Rainwise IP-100,2013-07-16 12:22:00,
2013-07-16 08:27:00,78.0,-23.0,30.07,NNW,337,5.0,8.0,0,0.00,,,0.00,Rainwise IP-100,2013-07-16 12:27:00,
2013-07-16 08:33:00,77.0,-23.0,30.08,NNW,337,2.0,8.0,0,0.00,,,0.00,Rainwise IP-100,2013-07-16 12:33:00,
2013-07-16 08:38:00,78.0,-23.0,30.08,NNE,22,7.0,7.0,0,0.00,,,0.00,Rainwise IP-100,2013-07-16 12:38:00,
2013-07-16 08:43:00,79.0,-23.0,30.07,North,360,0.0,9.0,0,0.00,,,0.00,Rainwise IP-100,2013-07-16 12:43:00,
2013-07-16 08:48:00,79.0,-23.0,30.07,North,360,0.0,7.0,0,0.00,,,0.00,Rainwise IP-100,2013-07-16 12:48:00,
2013-07-16 08:53:00,78.0,-23.0,30.07,West,270,0.0,0.0,0,0.00,,,0.00,Rainwise IP-100,2013-07-16 12:53:00,
2013-07-16 08:58:00,79.0,-23.0,30.07,NNE,22,5.0,0.0,0,0.00,,,0.00,Rainwise IP-100,2013-07-16 12:58:00,
2013-07-16 09:03:00,80.0,-23.0,30.06,North,360,2.0,7.0,0,0.00,,,0.00,Rainwise IP-100,2013-07-16 13:03:00,
2013-07-16 09:08:00,80.0,-23.0,30.06,NNW,337,0.0,7.0,0,0.00,,,0.00,Rainwise IP-100,2013-07-16 13:08:00,
2013-07-16 09:13:00,81.0,-23.0,30.06,North,360,1.0,9.0,0,0.00,,,0.00,Rainwise IP-100,2013-07-16 13:13:00,
2013-07-16 09:18:00,80.0,-23.0,30.06,North,360,6.0,9.0,0,0.00,,,0.00,Rainwise IP-100,2013-07-16 13:18:00,
2013-07-16 09:23:00,80.0,-23.0,30.07,NNE,22,9.0,0.0,0,0.00,,,0.00,Rainwise IP-100,2013-07-16 13:23:00,
2013-07-16 09:28:00,80.0,-23.0,30.07,NNE,22,9.0,9.0,0,0.00,,,0.00,Rainwise IP-100,2013-07-16 13:28:00,
2013-07-16 09:33:00,80.0,-23.0,30.07,NW,315,0.0,0.0,0,0.00,,,0.00,Rainwise IP-100,2013-07-16 13:33:00,
2013-07-16 09:38:00,80.0,-23.0,30.07,North,360,6.0,0.0,0,0.00,,,0.00,Rainwise IP-100,2013-07-16 13:38:00,
2013-07-16 09:43:00,80.0,-23.0,30.07,North,360,0.0,0.0,0,0.00,,,0.00,Rainwise IP-100,2013-07-16 13:43:00,
2013-07-16 09:49:00,80.0,-23.0,30.07,NNE,22,7.0,0.0,0,0.00,,,0.00,Rainwise IP-100,2013-07-16 13:49:00,
2013-07-16 09:54:00,79.0,-23.0,30.07,NNE,22,5.0,5.0,0,0.00,,,0.00,Rainwise IP-100,2013-07-16 13:54:00,
2013-07-16 09:59:00,80.0,-23.0,30.07,NNW,337,8.0,8.0,0,0.00,,,0.00,Rainwise IP-100,2013-07-16 13:59:00,
2013-07-16 10:04:00,79.0,-23.0,30.07,North,360,9.0,9.0,0,0.00,,,0.00,Rainwise IP-100,2013-07-16 14:04:00,
2013-07-16 10:09:00,80.0,-23.0,30.07,NNE,22,8.0,8.0,0,0.00,,,0.00,Rainwise IP-100,2013-07-16 14:09:00,
2013-07-16 10:14:00,80.0,-23.0,30.07,North,360,7.0,7.0,0,0.00,,,0.00,Rainwise IP-100,2013-07-16 14:14:00,
2013-07-16 10:19:00,81.0,-23.0,30.07,North,360,4.0,7.0,0,0.00,,,0.00,Rainwise IP-100,2013-07-16 14:19:00,
2013-07-16 10:24:00,81.0,-23.0,30.06,NNW,337,0.0,9.0,0,0.00,,,0.00,Rainwise IP-100,2013-07-16 14:24:00,
2013-07-16 10:29:00,81.0,-23.0,30.06,NNE,22,5.0,8.0,0,0.00,,,0.00,Rainwise IP-100,2013-07-16 14:29:00,
2013-07-16 10:34:00,80.0,-23.0,30.07,NNW,337,0.0,9.0,0,0.00,,,0.00,Rainwise IP-100,2013-07-16 14:34:00,
2013-07-16 10:39:00,81.0,-23.0,30.07,NNE,22,6.0,6.0,0,0.00,,,0.00,Rainwise IP-100,2013-07-16 14:39:00,
2013-07-16 10:44:00,79.0,-23.0,30.07,NE,45,4.0,9.0,0,0.00,,,0.00,Rainwise IP-100,2013-07-16 14:44:00,
2013-07-16 10:49:00,79.0,-23.0,30.07,NE,45,6.0,8.0,0,0.00,,,0.00,Rainwise IP-100,2013-07-16 14:49:00,
2013-07-16 10:54:00,79.0,-23.0,30.08,North,360,7.0,9.0,0,0.00,,,0.00,Rainwise IP-100,2013-07-16 14:54:00,
2013-07-16 10:59:00,80.0,-23.0,30.08,NNE,22,5.0,8.0,0,0.00,,,0.00,Rainwise IP-100,2013-07-16 14:59:00,
2013-07-16 11:05:00,81.0,-23.0,30.06,NNE,22,0.0,7.0,0,0.00,,,0.00,Rainwise IP-100,2013-07-16 15:05:00,
2013-07-16 11:10:00,82.0,-23.0,30.06,North,360,1.0,6.0,0,0.00,,,0.00,Rainwise IP-100,2013-07-16 15:10:00,
2013-07-16 11:15:00,82.0,-23.0,30.05,North,360,4.0,9.0,0,0.00,,,0.00,Rainwise IP-100,2013-07-16 15:15:00,
2013-07-16 11:20:00,82.0,-23.0,30.05,NE,45,4.0,7.0,0,0.00,,,0.00,Rainwise IP-100,2013-07-16 15:20:00,
2013-07-16 11:25:00,81.0,-23.0,30.05,NNE,22,3.0,8.0,0,0.00,,,0.00,Rainwise IP-100,2013-07-16 15:25:00,
2013-07-16 11:30:00,80.0,-23.0,30.05,North,360,7.0,8.0,0,0.00,,,0.00,Rainwise IP-100,2013-07-16 15:30:00,
2013-07-16 11:35:00,81.0,-23.0,30.06,North,360,2.0,7.0,0,0.00,,,0.00,Rainwise IP-100,2013-07-16 15:35:00,
2013-07-16 11:40:00,81.0,-23.0,30.06,North,360,6.0,7.0,0,0.00,,,0.00,Rainwise IP-100,2013-07-16 15:40:00,
2013-07-16 11:45:00,82.0,-23.0,30.06,North,360,0.0,6.0,0,0.00,,,0.00,Rainwise IP-100,2013-07-16 15:45:00,
2013-07-16 11:50:00,82.0,-23.0,30.06,WNW,292,0.0,6.0,0,0.00,,,0.00,Rainwise IP-100,2013-07-16 15:50:00,
2013-07-16 11:55:00,82.0,-23.0,30.05,North,360,1.0,7.0,0,0.00,,,0.00,Rainwise IP-100,2013-07-16 15:55:00,
2013-07-16 12:00:00,83.0,-23.0,30.05,North,360,1.0,7.0,0,0.00,,,0.00,Rainwise IP-100,2013-07-16 16:00:00,
2013-07-16 12:05:00,83.0,-23.0,30.04,NNE,22,0.0,5.0,0,0.00,,,0.00,Rainwise IP-100,2013-07-16 16:05:00,
2013-07-16 12:10:00,81.0,-23.0,30.04,NNE,22,6.0,7.0,0,0.00,,,0.00,Rainwise IP-100,2013-07-16 16:10:00,
2013-07-16 12:15:00,81.0,-23.0,30.05,NE,45,0.0,9.0,0,0.00,,,0.00,Rainwise IP-100,2013-07-16 16:15:00,
2013-07-16 12:21:00,82.0,-23.0,30.05,NE,45,0.0,6.0,0,0.00,,,0.00,Rainwise IP-100,2013-07-16 16:21:00,
2013-07-16 12:26:00,83.0,-23.0,30.05,NNE,22,0.0,3.0,0,0.00,,,0.00,Rainwise IP-100,2013-07-16 16:26:00,
2013-07-16 12:31:00,83.0,-23.0,30.05,NNE,22,5.0,7.0,0,0.00,,,0.00,Rainwise IP-100,2013-07-16 16:31:00,
2013-07-16 12:36:00,83.0,-23.0,30.05,NNE,22,7.0,8.0,0,0.00,,,0.00,Rainwise IP-100,2013-07-16 16:36:00,
2013-07-16 12:41:00,83.0,-23.0,30.05,NE,45,7.0,7.0,0,0.00,,,0.00,Rainwise IP-100,2013-07-16 16:41:00,
2013-07-16 12:46:00,83.0,-23.0,30.06,ENE,67,0.0,8.0,0,0.00,,,0.00,Rainwise IP-100,2013-07-16 16:46:00,
2013-07-16 12:51:00,83.0,-23.0,30.06,NNW,337,2.0,9.0,0,0.00,,,0.00,Rainwise IP-100,2013-07-16 16:51:00,
2013-07-16 12:56:00,82.0,-23.0,30.05,NNE,22,7.0,7.0,0,0.00,,,0.00,Rainwise IP-100,2013-07-16 16:56:00,
2013-07-16 13:01:00,82.0,-23.0,30.05,East,90,2.0,7.0,0,0.00,,,0.00,Rainwise IP-100,2013-07-16 17:01:00,
2013-07-16 13:06:00,83.0,-23.0,30.06,North,360,3.0,7.0,0,0.00,,,0.00,Rainwise IP-100,2013-07-16 17:06:00,
2013-07-16 13:11:00,83.0,-23.0,30.06,North,360,3.0,7.0,0,0.00,,,0.00,Rainwise IP-100,2013-07-16 17:11:00,
2013-07-16 13:16:00,82.0,-23.0,30.05,NNE,22,0.0,7.0,0,0.00,,,0.00,Rainwise IP-100,2013-07-16 17:16:00,
2013-07-16 13:21:00,82.0,-23.0,30.05,NE,45,0.0,6.0,0,0.00,,,0.00,Rainwise IP-100,2013-07-16 17:21:00,
2013-07-16 13:26:00,81.0,-23.0,30.05,NE,45,5.0,6.0,0,0.00,,,0.00,Rainwise IP-100,2013-07-16 17:26:00,
2013-07-16 13:31:00,82.0,-23.0,30.05,North,360,0.0,7.0,0,0.00,,,0.00,Rainwise IP-100,2013-07-16 17:31:00,
2013-07-16 13:37:00,81.0,-23.0,30.05,NE,45,4.0,7.0,0,0.00,,,0.00,Rainwise IP-100,2013-07-16 17:37:00,
2013-07-16 13:42:00,82.0,-23.0,30.05,NE,45,0.0,6.0,0,0.00,,,0.00,Rainwise IP-100,2013-07-16 17:42:00,
2013-07-16 13:47:00,81.0,-23.0,30.05,NE,45,2.0,7.0,0,0.00,,,0.00,Rainwise IP-100,2013-07-16 17:47:00,
2013-07-16 13:52:00,82.0,-23.0,30.05,NE,45,0.0,7.0,0,0.00,,,0.00,Rainwise IP-100,2013-07-16 17:52:00,
2013-07-16 13:57:00,82.0,-23.0,30.05,ENE,67,0.0,7.0,0,0.00,,,0.00,Rainwise IP-100,2013-07-16 17:57:00,
2013-07-16 14:02:00,82.0,-23.0,30.05,NE,45,6.0,7.0,0,0.00,,,0.00,Rainwise IP-100,2013-07-16 18:02:00,
2013-07-16 14:07:00,81.0,-23.0,30.05,NNW,337,4.0,7.0,0,0.00,,,0.00,Rainwise IP-100,2013-07-16 18:07:00,
2013-07-16 14:12:00,80.0,-23.0,30.05,NE,45,6.0,7.0,0,0.00,,,0.00,Rainwise IP-100,2013-07-16 18:12:00,
2013-07-16 14:17:00,80.0,-23.0,30.06,NE,45,4.0,9.0,0,0.00,,,0.00,Rainwise IP-100,2013-07-16 18:17:00,
2013-07-16 14:22:00,81.0,-23.0,30.06,East,90,0.0,8.0,0,0.00,,,0.00,Rainwise IP-100,2013-07-16 18:22:00,
2013-07-16 14:27:00,81.0,-23.0,30.06,NNE,22,4.0,0.0,0,0.00,,,0.00,Rainwise IP-100,2013-07-16 18:27:00,
2013-07-16 14:32:00,80.0,-23.0,30.07,NNE,22,5.0,0.0,0,0.00,,,0.00,Rainwise IP-100,2013-07-16 18:32:00,
2013-07-16 14:37:00,80.0,-23.0,30.07,East,90,0.0,1.0,0,0.00,,,0.00,Rainwise IP-100,2013-07-16 18:37:00,
2013-07-16 14:42:00,78.0,-23.0,30.08,NE,45,7.0,7.0,0,0.00,,,0.00,Rainwise IP-100,2013-07-16 18:42:00,
2013-07-16 14:47:00,79.0,-23.0,30.08,East,90,6.0,6.0,0,0.00,,,0.00,Rainwise IP-100,2013-07-16 18:47:00,
2013-07-16 14:53:00,78.0,-23.0,30.08,NE,45,9.0,9.0,0,0.00,,,0.00,Rainwise IP-100,2013-07-16 18:53:00,
2013-07-16 14:58:00,78.0,-23.0,30.08,NE,45,0.0,3.0,0,0.00,,,0.00,Rainwise IP-100,2013-07-16 18:58:00,
2013-07-16 15:03:00,78.0,-23.0,30.08,NE,45,9.0,9.0,0,0.00,,,0.00,Rainwise IP-100,2013-07-16 19:03:00,
2013-07-16 15:08:00,78.0,-23.0,30.08,East,90,0.0,2.0,0,0.00,,,0.00,Rainwise IP-100,2013-07-16 19:08:00,
2013-07-16 15:13:00,78.0,-23.0,30.08,NE,45,5.0,5.0,0,0.00,,,0.00,Rainwise IP-100,2013-07-16 19:13:00,
2013-07-16 15:18:00,77.0,-23.0,30.08,NE,45,9.0,9.0,0,0.00,,,0.00,Rainwise IP-100,2013-07-16 19:18:00,
2013-07-16 15:23:00,78.0,-23.0,30.08,NE,45,0.0,1.0,0,0.00,,,0.00,Rainwise IP-100,2013-07-16 19:23:00,
2013-07-16 15:28:00,79.0,-23.0,30.07,NNE,22,3.0,0.0,0,0.00,,,0.00,Rainwise IP-100,2013-07-16 19:28:00,
2013-07-16 15:33:00,79.0,-23.0,30.06,NE,45,6.0,9.0,0,0.00,,,0.00,Rainwise IP-100,2013-07-16 19:33:00,
2013-07-16 15:38:00,80.0,-23.0,30.06,NNE,22,5.0,7.0,0,0.00,,,0.00,Rainwise IP-100,2013-07-16 19:38:00,
2013-07-16 15:43:00,79.0,-23.0,30.05,NE,45,7.0,7.0,0,0.00,,,0.00,Rainwise IP-100,2013-07-16 19:43:00,
2013-07-16 15:48:00,79.0,-23.0,30.05,ENE,67,7.0,7.0,0,0.00,,,0.00,Rainwise IP-100,2013-07-16 19:48:00,
2013-07-16 15:53:00,79.0,-23.0,30.06,NE,45,1.0,0.0,0,0.00,,,0.00,Rainwise IP-100,2013-07-16 19:53:00,
2013-07-16 15:58:00,79.0,-23.0,30.06,NE,45,0.0,2.0,0,0.00,,,0.00,Rainwise IP-100,2013-07-16 19:58:00,
2013-07-16 16:03:00,79.0,-23.0,30.06,NE,45,2.0,0.0,0,0.00,,,0.00,Rainwise IP-100,2013-07-16 20:03:00,
2013-07-16 16:09:00,79.0,-23.0,30.06,NE,45,3.0,0.0,0,0.00,,,0.00,Rainwise IP-100,2013-07-16 20:09:00,
2013-07-16 16:14:00,79.0,-23.0,30.06,East,90,1.0,8.0,0,0.00,,,0.00,Rainwise IP-100,2013-07-16 20:14:00,
2013-07-16 16:19:00,79.0,-23.0,30.06,NE,45,0.0,7.0,0,0.00,,,0.00,Rainwise IP-100,2013-07-16 20:19:00,
2013-07-16 16:24:00,80.0,-23.0,30.06,East,90,0.0,6.0,0,0.00,,,0.00,Rainwise IP-100,2013-07-16 20:24:00,
2013-07-16 16:29:00,80.0,-23.0,30.06,NE,45,7.0,8.0,0,0.00,,,0.00,Rainwise IP-100,2013-07-16 20:29:00,
2013-07-16 16:34:00,79.0,-23.0,30.06,NE,45,4.0,9.0,0,0.00,,,0.00,Rainwise IP-100,2013-07-16 20:34:00,
2013-07-16 16:39:00,79.0,-23.0,30.06,ESE,112,6.0,0.0,0,0.00,,,0.00,Rainwise IP-100,2013-07-16 20:39:00,
2013-07-16 16:44:00,79.0,-23.0,30.07,ENE,67,9.0,0.0,0,0.00,,,0.00,Rainwise IP-100,2013-07-16 20:44:00,
2013-07-16 16:49:00,80.0,-23.0,30.07,East,90,4.0,0.0,0,0.00,,,0.00,Rainwise IP-100,2013-07-16 20:49:00,
2013-07-16 16:54:00,80.0,-23.0,30.06,ESE,112,0.0,0.0,0,0.00,,,0.00,Rainwise IP-100,2013-07-16 20:54:00,
2013-07-16 16:59:00,80.0,-23.0,30.06,NE,45,2.0,9.0,0,0.00,,,0.00,Rainwise IP-100,2013-07-16 20:59:00,
2013-07-16 17:04:00,80.0,-23.0,30.06,ENE,67,5.0,9.0,0,0.00,,,0.00,Rainwise IP-100,2013-07-16 21:04:00,
2013-07-16 17:09:00,80.0,-23.0,30.06,ENE,67,6.0,7.0,0,0.00,,,0.00,Rainwise IP-100,2013-07-16 21:09:00,
2013-07-16 17:14:00,80.0,-23.0,30.06,NE,45,2.0,8.0,0,0.00,,,0.00,Rainwise IP-100,2013-07-16 21:14:00,
2013-07-16 17:19:00,80.0,-23.0,30.06,ENE,67,4.0,9.0,0,0.00,,,0.00,Rainwise IP-100,2013-07-16 21:19:00,
2013-07-16 17:25:00,80.0,-23.0,30.06,NE,45,2.0,0.0,0,0.00,,,0.00,Rainwise IP-100,2013-07-16 21:25:00,
2013-07-16 17:30:00,79.0,-23.0,30.06,ENE,67,0.0,9.0,0,0.00,,,0.00,Rainwise IP-100,2013-07-16 21:30:00,
2013-07-16 17:35:00,78.0,-23.0,30.07,East,90,6.0,6.0,0,0.00,,,0.00,Rainwise IP-100,2013-07-16 21:35:00,
2013-07-16 17:40:00,77.0,-23.0,30.07,NE,45,9.0,0.0,0,0.00,,,0.00,Rainwise IP-100,2013-07-16 21:40:00,
2013-07-16 17:42:00,78.0,-23.0,30.07,NE,45,4.0,0.0,0,0.00,,,0.00,Rainwise IP-100,2013-07-16 21:42:00,
2013-07-16 17:47:00,78.0,-23.0,30.07,NE,45,6.0,7.0,0,0.00,,,0.00,Rainwise IP-100,2013-07-16 21:47:00,
2013-07-16 17:53:00,78.0,-23.0,30.07,ENE,67,0.0,9.0,0,0.00,,,0.00,Rainwise IP-100,2013-07-16 21:53:00,
2013-07-16 17:58:00,78.0,-23.0,30.07,ENE,67,4.0,8.0,0,0.00,,,0.00,Rainwise IP-100,2013-07-16 21:58:00,
2013-07-16 18:03:00,79.0,-23.0,30.06,East,90,1.0,7.0,0,0.00,,,0.00,Rainwise IP-100,2013-07-16 22:03:00,
2013-07-16 18:08:00,78.0,-23.0,30.06,East,90,6.0,6.0,0,0.00,,,0.00,Rainwise IP-100,2013-07-16 22:08:00,
2013-07-16 18:13:00,78.0,-23.0,30.07,NE,45,4.0,4.0,0,0.00,,,0.00,Rainwise IP-100,2013-07-16 22:13:00,
2013-07-16 18:18:00,78.0,-23.0,30.07,NE,45,5.0,0.0,0,0.00,,,0.00,Rainwise IP-100,2013-07-16 22:18:00,
2013-07-16 18:23:00,78.0,-23.0,30.08,ENE,67,6.0,0.0,0,0.00,,,0.00,Rainwise IP-100,2013-07-16 22:23:00,
2013-07-16 18:28:00,78.0,-23.0,30.08,NE,45,1.0,9.0,0,0.00,,,0.00,Rainwise IP-100,2013-07-16 22:28:00,
2013-07-16 18:33:00,77.0,-23.0,30.07,ENE,67,4.0,0.0,0,0.00,,,0.00,Rainwise IP-100,2013-07-16 22:33:00,
2013-07-16 18:38:00,77.0,-23.0,30.07,ENE,67,6.0,8.0,0,0.00,,,0.00,Rainwise IP-100,2013-07-16 22:38:00,
2013-07-16 18:43:00,77.0,-23.0,30.08,ENE,67,1.0,1.0,0,0.00,,,0.00,Rainwise IP-100,2013-07-16 22:43:00,
2013-07-16 18:48:00,77.0,-23.0,30.08,NNE,22,6.0,6.0,0,0.00,,,0.00,Rainwise IP-100,2013-07-16 22:48:00,
2013-07-16 18:53:00,76.0,-23.0,30.09,East,90,5.0,5.0,0,0.00,,,0.00,Rainwise IP-100,2013-07-16 22:53:00,
2013-07-16 18:58:00,76.0,-23.0,30.09,ENE,67,8.0,9.0,0,0.00,,,0.00,Rainwise IP-100,2013-07-16 22:58:00,
2013-07-16 19:03:00,75.0,-23.0,30.09,NE,45,7.0,0.0,0,0.00,,,0.00,Rainwise IP-100,2013-07-16 23:03:00,
2013-07-16 19:09:00,75.0,-23.0,30.09,ENE,67,0.0,7.0,0,0.00,,,0.00,Rainwise IP-100,2013-07-16 23:09:00,
2013-07-16 19:14:00,75.0,-23.0,30.09,East,90,2.0,7.0,0,0.00,,,0.00,Rainwise IP-100,2013-07-16 23:14:00,
2013-07-16 19:19:00,75.0,-23.0,30.09,NE,45,1.0,6.0,0,0.00,,,0.00,Rainwise IP-100,2013-07-16 23:19:00,
2013-07-16 19:24:00,74.0,-23.0,30.09,East,90,2.0,8.0,0,0.00,,,0.00,Rainwise IP-100,2013-07-16 23:24:00,
2013-07-16 19:29:00,75.0,-23.0,30.09,NE,45,2.0,6.0,0,0.00,,,0.00,Rainwise IP-100,2013-07-16 23:29:00,
2013-07-16 19:34:00,75.0,-23.0,30.09,NE,45,5.0,6.0,0,0.00,,,0.00,Rainwise IP-100,2013-07-16 23:34:00,
2013-07-16 19:39:00,74.0,-23.0,30.09,ENE,67,3.0,5.0,0,0.00,,,0.00,Rainwise IP-100,2013-07-16 23:39:00,
2013-07-16 19:44:00,74.0,-23.0,30.10,NNE,22,0.0,6.0,0,0.00,,,0.00,Rainwise IP-100,2013-07-16 23:44:00,
2013-07-16 19:49:00,74.0,-23.0,30.10,North,360,1.0,6.0,0,0.00,,,0.00,Rainwise IP-100,2013-07-16 23:49:00,
2013-07-16 19:54:00,74.0,-23.0,30.10,NE,45,3.0,6.0,0,0.00,,,0.00,Rainwise IP-100,2013-07-16 23:54:00,
2013-07-16 19:59:00,73.0,-23.0,30.10,NNE,22,0.0,6.0,0,0.00,,,0.00,Rainwise IP-100,2013-07-16 23:59:00,
2013-07-16 20:04:00,73.0,-23.0,30.10,NNE,22,2.0,6.0,0,0.00,,,0.00,Rainwise IP-100,2013-07-17 00:04:00,
2013-07-16 20:09:00,73.0,-23.0,30.10,NE,45,0.0,5.0,0,0.00,,,0.00,Rainwise IP-100,2013-07-17 00:09:00,
2013-07-16 20:14:00,73.0,-23.0,30.10,North,360,1.0,0.0,0,0.00,,,0.00,Rainwise IP-100,2013-07-17 00:14:00,
2013-07-16 20:19:00,73.0,-23.0,30.10,North,360,0.0,1.0,0,0.00,,,0.00,Rainwise IP-100,2013-07-17 00:19:00,
2013-07-16 20:25:00,72.0,-23.0,30.10,North,360,0.0,1.0,0,0.00,,,0.00,Rainwise IP-100,2013-07-17 00:25:00,
2013-07-16 20:30:00,72.0,-23.0,30.10,North,360,0.0,0.0,0,0.00,,,0.00,Rainwise IP-100,2013-07-17 00:30:00,
2013-07-16 20:35:00,72.0,-23.0,30.11,North,360,0.0,0.0,0,0.00,,,0.00,Rainwise IP-100,2013-07-17 00:35:00,
2013-07-16 20:40:00,72.0,-23.0,30.11,North,360,0.0,0.0,0,0.00,,,0.00,Rainwise IP-100,2013-07-17 00:40:00,
2013-07-16 20:45:00,72.0,-23.0,30.10,North,360,0.0,2.0,0,0.00,,,0.00,Rainwise IP-100,2013-07-17 00:45:00,
2013-07-16 20:50:00,72.0,-23.0,30.10,North,360,0.0,0.0,0,0.00,,,0.00,Rainwise IP-100,2013-07-17 00:50:00,
2013-07-16 20:55:00,72.0,-23.0,30.11,North,360,0.0,0.0,0,0.00,,,0.00,Rainwise IP-100,2013-07-17 00:55:00,
2013-07-16 21:00:00,72.0,-23.0,30.11,North,360,0.0,0.0,0,0.00,,,0.00,Rainwise IP-100,2013-07-17 01:00:00,
2013-07-16 21:05:00,71.0,-23.0,30.11,North,360,0.0,0.0,0,0.00,,,0.00,Rainwise IP-100,2013-07-17 01:05:00,
2013-07-16 21:10:00,71.0,-23.0,30.11,North,360,0.0,0.0,0,0.00,,,0.00,Rainwise IP-100,2013-07-17 01:10:00,
2013-07-16 21:15:00,71.0,-23.0,30.12,North,360,0.0,0.0,0,0.00,,,0.00,Rainwise IP-100,2013-07-17 01:15:00,
2013-07-16 21:20:00,71.0,-23.0,30.12,North,360,0.0,0.0,0,0.00,,,0.00,Rainwise IP-100,2013-07-17 01:20:00,
2013-07-16 21:25:00,71.0,-23.0,30.12,North,360,0.0,0.0,0,0.00,,,0.00,Rainwise IP-100,2013-07-17 01:25:00,
2013-07-16 21:30:00,72.0,-23.0,30.12,North,360,0.0,0.0,0,0.00,,,0.00,Rainwise IP-100,2013-07-17 01:30:00,
2013-07-16 21:35:00,72.0,-23.0,30.12,North,360,0.0,0.0,0,0.00,,,0.00,Rainwise IP-100,2013-07-17 01:35:00,
2013-07-16 21:41:00,72.0,-23.0,30.12,North,360,0.0,0.0,0,0.00,,,0.00,Rainwise IP-100,2013-07-17 01:41:00,
2013-07-16 21:46:00,72.0,-23.0,30.12,North,360,0.0,0.0,0,0.00,,,0.00,Rainwise IP-100,2013-07-17 01:46:00,
2013-07-16 21:51:00,72.0,-23.0,30.12,North,360,0.0,0.0,0,0.00,,,0.00,Rainwise IP-100,2013-07-17 01:51:00,
2013-07-16 21:56:00,72.0,-23.0,30.12,North,360,0.0,0.0,0,0.00,,,0.00,Rainwise IP-100,2013-07-17 01:56:00,
2013-07-16 22:01:00,73.0,-23.0,30.12,North,360,0.0,0.0,0,0.00,,,0.00,Rainwise IP-100,2013-07-17 02:01:00,
2013-07-16 22:06:00,73.0,-23.0,30.11,North,360,0.0,0.0,0,0.00,,,0.00,Rainwise IP-100,2013-07-17 02:06:00,
2013-07-16 22:11:00,73.0,-23.0,30.11,North,360,0.0,0.0,0,0.00,,,0.00,Rainwise IP-100,2013-07-17 02:11:00,
2013-07-16 22:16:00,73.0,-23.0,30.11,North,360,0.0,0.0,0,0.00,,,0.00,Rainwise IP-100,2013-07-17 02:16:00,
2013-07-16 22:21:00,72.0,-23.0,30.11,North,360,0.0,0.0,0,0.00,,,0.00,Rainwise IP-100,2013-07-17 02:21:00,
2013-07-16 22:26:00,72.0,-23.0,30.12,North,360,0.0,0.0,0,0.00,,,0.00,Rainwise IP-100,2013-07-17 02:26:00,
2013-07-16 22:31:00,72.0,-23.0,30.12,North,360,0.0,0.0,0,0.00,,,0.00,Rainwise IP-100,2013-07-17 02:31:00,
2013-07-16 22:36:00,72.0,-23.0,30.12,North,360,0.0,0.0,0,0.00,,,0.00,Rainwise IP-100,2013-07-17 02:36:00,
2013-07-16 22:41:00,72.0,-23.0,30.12,North,360,0.0,0.0,0,0.00,,,0.00,Rainwise IP-100,2013-07-17 02:41:00,
2013-07-16 22:46:00,72.0,-23.0,30.12,North,360,0.0,0.0,0,0.00,,,0.00,Rainwise IP-100,2013-07-17 02:46:00,
2013-07-16 22:51:00,72.0,-23.0,30.12,North,360,0.0,0.0,0,0.00,,,0.00,Rainwise IP-100,2013-07-17 02:51:00,
2013-07-16 22:57:00,72.0,-23.0,30.12,North,360,0.0,0.0,0,0.00,,,0.00,Rainwise IP-100,2013-07-17 02:57:00,
2013-07-16 23:02:00,72.0,-23.0,30.12,North,360,0.0,0.0,0,0.00,,,0.00,Rainwise IP-100,2013-07-17 03:02:00,
2013-07-16 23:07:00,72.0,-23.0,30.12,North,360,0.0,0.0,0,0.00,,,0.00,Rainwise IP-100,2013-07-17 03:07:00,
2013-07-16 23:12:00,71.0,-23.0,30.12,North,360,0.0,0.0,0,0.00,,,0.00,Rainwise IP-100,2013-07-17 03:12:00,
2013-07-16 23:17:00,71.0,-23.0,30.13,North,360,0.0,0.0,0,0.00,,,0.00,Rainwise IP-100,2013-07-17 03:17:00,
2013-07-16 23:22:00,71.0,-23.0,30.13,North,360,0.0,0.0,0,0.00,,,0.00,Rainwise IP-100,2013-07-17 03:22:00,
2013-07-16 23:27:00,71.0,-23.0,30.13,North,360,0.0,0.0,0,0.00,,,0.00,Rainwise IP-100,2013-07-17 03:27:00,
2013-07-16 23:32:00,70.0,-23.0,30.13,North,360,0.0,0.0,0,0.00,,,0.00,Rainwise IP-100,2013-07-17 03:32:00,
2013-07-16 23:37:00,71.0,-23.0,30.13,North,360,0.0,0.0,0,0.00,,,0.00,Rainwise IP-100,2013-07-17 03:37:00,
2013-07-16 23:42:00,71.0,-23.0,30.12,North,360,0.0,0.0,0,0.00,,,0.00,Rainwise IP-100,2013-07-17 03:42:00,
2013-07-16 23:47:00,71.0,-23.0,30.12,North,360,0.0,0.0,0,0.00,,,0.00,Rainwise IP-100,2013-07-17 03:47:00,
2013-07-16 23:52:00,71.0,-23.0,30.13,North,360,0.0,0.0,0,0.00,,,0.00,Rainwise IP-100,2013-07-17 03:52:00,
2013-07-16 23:57:00,71.0,-23.0,30.13,North,360,0.0,0.0,0,0.00,,,0.00,Rainwise IP-100,2013-07-17 03:57:00,